QPF
0.04 0.02 0.02 0.02 0.00 0.01 0.02 0.03 0.01 0.00 0.00 0.00 0.00 0.00 0.00 0.00 0.00 0.00 0.00 0.00 0.01 0.01 0.01 0.00 0.00 0.00 0.00 0.00 0.00 0.00 0.00 0.00 0.00 0.01 0.02 0.01 0.00 0.01 0.01 0.00 0.00 0.00 0.01
0.00 0.00 0.03 0.03 0.00 0.00 0.00 0.00 0.00 0.00 0.00 0.00 0.00 0.00 0.00 0.00 0.00 0.00 0.00 0.00 0.00 0.01 0.01 0.00 0.00 0.00 0.00 0.00 0.00 0.00 0.00 0.00 0.01 0.00 0.00 0.00 0.00 0.00 0.00 0.00 0.00 0.00 0.00
0.00 0.00 0.01 0.01 0.00 0.00 0.00 0.00 0.00 0.00 0.00 0.00 0.00 0.00 0.00 0.00 0.00 0.00 0.00 0.02 0.04 0.03 0.00 0.00 0.00 0.00 0.00 0.00 0.00 0.03 0.03 0.03 0.03 0.00 0.00 0.00 0.00 0.00 0.00 0.00 0.00 0.00 0.00
0.00 0.00 0.00 0.00 0.01 0.00 0.01 0.00 0.00 0.00 0.00 0.00 0.00 0.00 0.00 0.00 0.00 0.01 0.01 0.02 0.03 0.01 0.00 0.00 0.00 0.00 0.00 0.00 0.03 0.01 0.02 0.03 0.00 0.00 0.00 0.00 0.00 0.01 0.00 0.00 0.01 0.01 0.00
0.00 0.00 0.00 0.00 0.01 0.00 0.00 0.00 0.00 0.00 0.00 0.00 0.00 0.00 0.00 0.00 0.01 0.03 0.01 0.00 0.01 0.02 0.00 0.00 0.00 0.00 0.00 0.00 0.00 0.02 0.02 0.01 0.00 0.00 0.00 0.00 0.00 0.01 0.02 0.01 0.00 0.01 0.00
0.00 0.00 0.00 0.00 0.00 0.00 0.00 0.00 0.00 0.00 0.00 0.00 0.00 0.00 0.01 0.00 0.01 0.01 0.01 0.01 0.00 0.00 0.00 0.00 0.00 0.00 0.00 0.00 0.00 0.02 0.01 0.00 0.00 0.00 0.00 0.00 0.00 0.00 0.00 0.00 0.00 0.00 0.01
0.00 0.00 0.00 0.02 0.01 0.01 0.00 0.00 0.00 0.00 0.00 0.00 0.00 0.01 0.01 0.01 0.00 0.01 0.01 0.01 0.00 0.00 0.00 0.00 0.00 0.00 0.00 0.00 0.01 0.04 0.01 0.01 0.00 0.00 0.00 0.00 0.00 0.02 0.00 0.00 0.00 0.00 0.00
0.00 0.00 0.00 0.01 0.01 0.01 0.01 0.00 0.00 0.00 0.00 0.00 0.00 0.00 0.00 0.00 0.00 0.00 0.00 0.00 0.00 0.00 0.00 0.00 0.00 0.00 0.00 0.00 0.01 0.02 0.01 0.01 0.00 0.00 0.00 0.00 0.00 0.01 0.00 0.00 0.00 0.01 0.00
0.00 0.00 0.00 0.00 0.00 0.00 0.01 0.00 0.00 0.00 0.00 0.00 0.00 0.00 0.00 0.00 0.00 0.00 0.00 0.00 0.00 0.00 0.00 0.00 0.00 0.00 0.00 0.00 0.00 0.01 0.03 0.01 0.00 0.00 0.00 0.00 0.00 0.00 0.00 0.00 0.01 0.00 0.00
0.00 0.00 0.00 0.00 0.00 0.00 0.00 0.00 0.00 0.00 0.00 0.01 0.03 0.01 0.01 0.00 0.00 0.00 0.01 0.00 0.00 0.00 0.00 0.00 0.00 0.00 0.00 0.00 0.00 0.00 0.01 0.01 0.00 0.00 0.00 0.00 0.00 0.00 0.00 0.00 0.00 0.00 0.00
0.01 0.00 0.00 0.00 0.00 0.00 0.00 0.00 0.00 0.00 0.06 0.08 0.05 0.01 0.02 0.01 0.00 0.00 0.01 0.01 0.00 0.00 0.01 0.02 0.00 0.00 0.00 0.00 0.00 0.00 0.00 0.00 0.00 0.00 0.00 0.00 0.00 0.01 0.00 0.00 0.00 0.00 0.00
0.01 0.00 0.00 0.00 0.00 0.00 0.00 0.00 0.00 0.00 0.00 0.04 0.03 0.00 0.00 0.00 0.00 0.00 0.00 0.01 0.01 0.09 0.10 0.03 0.01 0.04 0.00 0.00 0.00 0.00 0.00 0.00 0.00 0.00 0.00 0.00 0.00 0.00 0.00 0.00 0.00 0.00 0.00
0.00 0.00 0.00 0.00 0.00 0.00 0.00 0.00 0.00 0.00 0.00 0.00 0.00 0.00 0.00 0.00 0.00 0.00 0.00 0.00 0.01 0.05 0.16 0.09 0.02 0.02 0.03 0.01 0.01 0.01 0.00 0.00 0.00 0.00 0.00 0.00 0.00 0.00 0.00 0.00 0.00 0.00 0.00
0.02 0.00 0.00 0.00 0.00 0.00 0.00 0.00 0.00 0.00 0.00 0.00 0.00 0.00 0.00 0.00 0.01 0.01 0.09 0.13 0.02 0.05 0.07 0.07 0.02 0.01 0.01 0.00 0.00 0.00 0.00 0.00 0.00 0.00 0.00 0.00 0.00 0.00 0.00 0.00 0.00 0.00 0.00
0.00 0.00 0.00 0.00 0.00 0.00 0.00 0.00 0.00 0.00 0.00 0.00 0.00 0.00 0.00 0.02 0.05 0.05 0.11 0.03 0.08 0.13 0.09 0.02 0.03 0.02 0.05 0.00 0.00 0.00 0.00 0.00 0.00 0.00 0.00 0.00 0.00 0.00 0.00 0.00 0.00 0.00 0.00
0.00 0.00 0.00 0.00 0.00 0.00 0.00 0.00 0.00 0.00 0.00 0.00 0.00 0.00 0.00 0.01 0.03 0.03 0.01 0.02 0.18 0.06 0.05 0.07 0.08 0.01 0.00 0.00 0.00 0.00 0.00 0.00 0.00 0.00 0.00 0.00 0.00 0.00 0.00 0.00 0.00 0.00 0.00
0.00 0.00 0.00 0.00 0.00 0.00 0.00 0.00 0.00 0.00 0.00 0.00 0.00 0.01 0.02 0.01 0.00 0.01 0.01 0.06 0.10 0.07 0.10 0.09 0.05 0.00 0.00 0.00 0.00 0.00 0.00 0.00 0.00 0.00 0.00 0.00 0.00 0.00 0.00 0.00 0.00 0.00 0.00
0.00 0.00 0.00 0.00 0.00 0.00 0.00 0.00 0.00 0.01 0.01 0.00 0.00 0.00 0.00 0.00 0.04 0.04 0.02 0.02 0.04 0.07 0.04 0.04 0.02 0.00 0.00 0.00 0.00 0.00 0.00 0.00 0.00 0.00 0.00 0.00 0.00 0.00 0.00 0.00 0.00 0.00 0.00
0.00 0.00 0.00 0.00 0.00 0.00 0.00 0.00 0.00 0.01 0.01 0.00 0.00 0.00 0.00 0.00 0.02 0.02 0.00 0.02 0.03 0.01 0.01 0.00 0.00 0.00 0.00 0.00 0.00 0.00 0.00 0.00 0.00 0.00 0.00 0.00 0.00 0.00 0.00 0.00 0.00 0.00 0.00
0.00 0.00 0.00 0.00 0.00 0.00 0.00 0.01 0.01 0.01 0.02 0.00 0.00 0.00 0.01 0.00 0.01 0.04 0.00 0.00 0.03 0.00 0.00 0.01 0.00 0.00 0.00 0.00 0.00 0.00 0.00 0.00 0.00 0.00 0.00 0.00 0.00 0.00 0.00 0.00 0.00 0.00 0.00
0.00 0.00 0.00 0.00 0.00 0.00 0.00 0.00 0.00 0.00 0.01 0.00 0.00 0.00 0.00 0.02 0.01 0.02 0.01 0.00 0.00 0.00 0.01 0.00 0.00 0.00 0.00 0.00 0.00 0.00 0.00 0.00 0.00 0.00 0.00 0.00 0.00 0.00 0.00 0.00 0.00 0.00 0.00
0.00 0.00 0.00 0.00 0.00 0.00 0.00 0.00 0.00 0.00 0.00 0.00 0.01 0.01 0.00 0.00 0.01 0.02 0.01 0.01 0.00 0.00 0.00 0.00 0.00 0.00 0.00 0.00 0.00 0.00 0.00 0.00 0.00 0.00 0.00 0.00 0.00 0.00 0.00 0.00 0.00 0.00 0.00
0.00 0.00 0.00 0.00 0.00 0.00 0.00 0.00 0.01 0.01 0.00 0.00 0.01 0.00 0.00 0.00 0.01 0.05 0.01 0.01 0.00 0.00 0.00 0.00 0.00 0.00 0.00 0.00 0.00 0.00 0.00 0.00 0.00 0.00 0.00 0.00 0.00 0.00 0.00 0.00 0.00 0.00 0.00
0.00 0.00 0.00 0.00 0.00 0.00 0.00 0.00 0.00 0.00 0.00 0.00 0.03 0.00 0.00 0.00 0.00 0.00 0.00 0.01 0.00 0.00 0.00 0.00 0.00 0.00 0.00 0.00 0.00 0.00 0.00 0.00 0.00 0.00 0.00 0.00 0.00 0.00 0.00 0.00 0.00 0.00 0.00
0.00 0.00 0.00 0.00 0.00 0.00 0.00 0.00 0.00 0.00 0.01 0.02 0.05 0.06 0.01 0.01 0.00 0.00 0.00 0.03 0.02 0.01 0.00 0.00 0.00 0.00 0.00 0.01 0.00 0.00 0.00 0.00 0.00 0.00 0.00 0.00 0.00 0.00 0.00 0.00 0.00 0.00 0.00
0.00 0.00 0.00 0.00 0.00 0.00 0.00 0.00 0.00 0.00 0.02 0.01 0.02 0.04 0.00 0.02 0.01 0.00 0.00 0.01 0.01 0.00 0.00 0.01 0.01 0.00 0.00 0.00 0.00 0.00 0.00 0.00 0.00 0.00 0.00 0.00 0.00 0.00 0.00 0.00 0.00 0.00 0.00
MSLP
1016.64 1016.58 1016.72 1016.76 1016.84 1016.94 1017.15 1017.13 1017.15 1017.24 1017.34 1017.30 1017.51 1017.62 1017.71 1017.74 1017.70 1017.76 1017.87 1017.97 1018.03 1018.13 1018.23 1018.25 1018.32 1018.37 1018.42 1018.38 1018.39 1018.56 1018.70 1018.73 1018.89 1019.04 1019.24 1019.32 1019.32 1019.22 1019.42 1019.48 1019.50 1019.66 1019.65
1016.22 1016.63 1016.77 1016.87 1016.99 1017.09 1017.23 1017.31 1017.35 1017.35 1017.49 1017.67 1017.73 1017.90 1017.99 1017.97 1017.97 1017.97 1018.07 1018.20 1018.32 1018.29 1018.37 1018.48 1018.55 1018.55 1018.52 1018.56 1018.66 1018.82 1018.95 1019.11 1019.21 1019.33 1019.49 1019.60 1019.71 1019.75 1019.70 1019.71 1019.88 1019.92 1020.06
1016.35 1016.75 1016.88 1016.93 1017.14 1017.31 1017.44 1017.51 1017.52 1017.57 1017.63 1017.79 1017.93 1018.00 1018.08 1018.10 1018.14 1018.23 1018.32 1018.43 1018.46 1018.47 1018.53 1018.63 1018.74 1018.77 1018.74 1018.87 1019.04 1019.19 1019.35 1019.41 1019.37 1019.55 1019.82 1019.95 1020.04 1020.04 1020.00 1020.06 1020.13 1020.28 1020.40
1016.28 1016.75 1017.03 1017.17 1017.37 1017.49 1017.64 1017.65 1017.59 1017.63 1017.71 1017.86 1018.03 1018.12 1018.21 1018.30 1018.33 1018.36 1018.47 1018.56 1018.71 1018.75 1018.81 1018.85 1018.90 1018.89 1018.96 1019.13 1019.33 1019.62 1019.64 1019.58 1019.68 1019.73 1019.94 1020.13 1020.14 1020.30 1020.44 1020.46 1020.48 1020.58 1020.73
1016.22 1016.82 1017.13 1017.26 1017.46 1017.56 1017.65 1017.70 1017.74 1017.76 1017.87 1018.08 1018.26 1018.34 1018.39 1018.40 1018.49 1018.59 1018.60 1018.83 1019.02 1019.07 1019.02 1018.99 1019.06 1019.17 1019.31 1019.45 1019.72 1019.57 1019.39 1019.57 1019.96 1020.14 1020.37 1020.48 1020.55 1020.67 1020.69 1020.75 1020.80 1020.94 1021.03
1016.46 1017.02 1017.22 1017.33 1017.45 1017.61 1017.71 1017.84 1017.94 1017.98 1018.08 1018.26 1018.42 1018.50 1018.58 1018.64 1018.65 1018.77 1018.84 1019.02 1019.10 1019.28 1019.31 1019.30 1019.38 1019.49 1019.64 1019.85 1019.64 1019.66 1019.82 1019.85 1020.12 1020.46 1020.71 1020.77 1020.89 1020.90 1021.00 1021.04 1021.05 1021.19 1021.25
1016.68 1017.13 1017.37 1017.50 1017.56 1017.72 1017.87 1018.02 1018.16 1018.24 1018.35 1018.51 1018.61 1018.68 1018.77 1018.86 1018.91 1018.92 1019.06 1019.29 1019.29 1019.38 1019.45 1019.51 1019.55 1019.64 1019.80 1019.99 1019.86 1019.94 1020.12 1020.15 1020.42 1020.75 1021.06 1021.22 1021.17 1021.10 1021.23 1021.29 1021.35 1021.47 1021.52
1016.37 1017.02 1017.33 1017.64 1017.77 1017.90 1018.05 1018.23 1018.40 1018.57 1018.71 1018.83 1018.90 1018.94 1019.04 1019.15 1019.17 1019.16 1019.48 1019.57 1019.56 1019.68 1019.58 1019.67 1019.72 1019.73 1019.90 1020.18 1020.12 1020.13 1020.17 1020.41 1020.73 1020.99 1021.26 1021.37 1021.39 1021.42 1021.48 1021.60 1021.63 1021.69 1021.75
1016.29 1016.85 1017.42 1017.65 1017.83 1018.01 1018.16 1018.30 1018.49 1018.74 1018.95 1019.10 1019.20 1019.29 1019.37 1019.45 1019.40 1019.44 1019.62 1019.63 1019.62 1019.62 1019.79 1019.89 1019.84 1019.85 1020.04 1020.16 1020.30 1020.43 1020.38 1020.76 1021.16 1021.19 1021.33 1021.64 1021.68 1021.63 1021.72 1021.81 1021.88 1021.93 1021.95
1016.53 1016.87 1017.37 1017.67 1017.93 1018.26 1018.41 1018.49 1018.64 1018.83 1019.11 1019.41 1019.49 1019.63 1019.63 1019.54 1019.54 1019.60 1019.59 1019.62 1019.90 1020.22 1020.30 1020.28 1020.19 1020.32 1020.17 1020.30 1020.44 1020.10 1020.61 1020.87 1021.16 1021.31 1021.56 1021.85 1021.86 1021.86 1021.91 1022.04 1022.09 1022.12 1022.12
1016.72 1016.92 1017.40 1017.62 1018.07 1018.19 1018.44 1018.49 1018.75 1018.92 1019.33 1019.39 1019.54 1019.78 1019.82 1019.80 1019.87 1019.67 1019.69 1019.90 1020.63 1020.79 1020.71 1020.54 1020.31 1020.33 1020.33 1020.31 1020.57 1020.45 1020.57 1021.04 1021.37 1021.62 1021.68 1021.86 1021.94 1021.91 1022.03 1022.18 1022.22 1022.22 1022.22
1016.55 1016.88 1017.22 1017.58 1017.88 1018.26 1018.28 1018.52 1018.86 1019.13 1019.38 1019.49 1019.76 1019.89 1020.03 1019.97 1019.78 1020.01 1020.24 1020.69 1021.14 1020.87 1020.76 1021.02 1020.67 1020.42 1020.33 1020.53 1020.68 1020.73 1020.91 1021.15 1021.42 1021.69 1021.78 1021.88 1021.95 1022.03 1022.14 1022.22 1022.24 1022.22 1022.20
1016.18 1016.71 1017.26 1017.33 1017.80 1018.15 1018.29 1018.51 1018.95 1019.21 1019.27 1019.28 1019.54 1019.97 1020.06 1020.16 1020.21 1020.46 1020.58 1020.87 1021.26 1021.10 1021.07 1021.30 1021.01 1020.80 1020.84 1020.42 1020.67 1020.95 1021.22 1021.23 1021.58 1021.68 1021.81 1021.88 1021.98 1022.04 1022.09 1022.14 1022.15 1022.17 1022.16
1016.42 1016.97 1017.05 1017.23 1017.75 1018.09 1018.34 1018.53 1018.76 1019.09 1019.06 1019.11 1019.49 1019.88 1020.02 1020.30 1020.45 1020.81 1020.97 1021.03 1021.73 1021.68 1021.47 1021.16 1020.81 1020.77 1020.81 1020.43 1020.29 1020.17 1020.88 1021.40 1021.83 1021.81 1021.88 1021.89 1021.89 1021.96 1022.00 1022.01 1022.09 1022.14 1022.14
1016.23 1016.84 1017.14 1017.11 1017.77 1017.85 1018.08 1018.47 1018.76 1018.70 1018.82 1018.89 1019.28 1019.67 1019.94 1020.42 1020.82 1021.43 1020.93 1020.85 1021.39 1021.53 1021.12 1020.80 1020.70 1020.67 1020.66 1020.06 1019.91 1020.16 1020.94 1021.37 1021.60 1021.84 1021.98 1021.87 1021.86 1021.92 1021.90 1021.94 1022.02 1022.04 1022.10
1016.01 1016.79 1017.09 1017.23 1017.62 1017.85 1018.01 1018.38 1018.44 1018.82 1018.76 1018.89 1019.21 1019.55 1020.12 1020.27 1020.68 1021.28 1021.04 1021.03 1021.09 1021.43 1021.29 1021.11 1020.81 1020.64 1020.60 1020.37 1020.29 1020.19 1020.61 1020.95 1021.26 1021.66 1021.88 1021.89 1021.85 1021.85 1021.83 1021.79 1021.90 1021.97 1022.03
1015.82 1016.53 1017.06 1017.30 1017.25 1017.40 1017.87 1018.51 1018.78 1018.68 1018.99 1019.12 1019.16 1019.50 1020.13 1020.20 1020.35 1020.70 1021.22 1021.46 1021.41 1021.10 1020.88 1021.05 1021.14 1020.88 1020.45 1020.18 1020.48 1020.45 1020.49 1020.67 1020.88 1021.24 1021.64 1021.81 1021.81 1021.72 1021.72 1021.74 1021.78 1021.84 1021.83
1015.60 1016.41 1016.86 1017.08 1017.49 1017.63 1017.84 1018.35 1018.67 1018.95 1019.37 1019.36 1019.19 1019.59 1019.78 1020.14 1020.44 1020.75 1020.99 1021.08 1021.03 1021.47 1020.93 1021.36 1021.34 1021.27 1021.06 1020.88 1020.70 1020.62 1020.60 1020.49 1020.44 1021.06 1021.35 1021.47 1021.58 1021.55 1021.55 1021.58 1021.63 1021.66 1021.65
1015.59 1016.27 1016.87 1017.15 1017.55 1017.90 1017.77 1018.15 1018.61 1018.77 1019.44 1019.53 1019.38 1019.67 1019.82 1020.08 1020.69 1020.43 1020.99 1021.36 1020.89 1021.15 1021.02 1020.99 1021.40 1021.13 1021.15 1021.02 1020.93 1020.97 1020.84 1020.65 1020.37 1020.48 1020.92 1021.10 1021.29 1021.24 1021.25 1021.28 1021.43 1021.46 1021.40
1015.77 1016.17 1016.76 1017.38 1017.67 1018.00 1018.27 1018.85 1018.86 1019.19 1019.44 1019.40 1019.62 1019.67 1019.82 1020.03 1020.21 1020.53 1020.79 1021.05 1020.88 1020.96 1020.96 1021.14 1021.23 1021.23 1021.01 1020.99 1020.78 1020.64 1020.68 1020.35 1020.40 1020.51 1020.48 1020.51 1020.87 1020.92 1020.92 1021.04 1021.27 1021.24 1021.13
1015.89 1016.42 1016.92 1017.43 1017.73 1018.21 1018.56 1019.23 1019.29 1019.55 1019.44 1019.72 1019.68 1019.65 1019.65 1020.13 1020.15 1020.51 1020.61 1020.99 1020.98 1021.15 1021.23 1021.29 1021.34 1021.33 1021.20 1020.83 1021.16 1020.89 1020.63 1020.55 1020.51 1020.59 1020.50 1020.26 1020.51 1020.60 1020.58 1020.85 1020.89 1020.92 1020.82
1015.83 1016.55 1017.11 1017.43 1017.79 1018.12 1018.45 1018.81 1018.95 1019.13 1019.40 1019.39 1019.45 1019.67 1019.71 1020.03 1020.22 1020.36 1020.52 1020.66 1020.71 1021.13 1021.26 1021.30 1021.20 1021.54 1021.49 1021.20 1021.27 1021.55 1021.57 1020.98 1020.42 1020.38 1020.35 1020.38 1020.37 1020.19 1020.44 1020.39 1020.39 1020.46 1020.42
1015.66 1016.32 1017.19 1017.52 1017.77 1018.04 1018.51 1018.80 1018.66 1018.78 1019.48 1019.92 1019.83 1019.81 1019.76 1019.97 1020.08 1020.40 1020.58 1020.85 1021.08 1021.16 1021.27 1021.30 1021.34 1021.44 1021.66 1021.14 1020.91 1021.14 1021.67 1021.69 1021.27 1020.72 1020.43 1020.25 1020.11 1020.29 1020.19 1020.11 1020.13 1020.05 1019.93
1015.31 1015.95 1016.74 1017.47 1017.79 1018.05 1018.56 1018.84 1019.04 1019.31 1019.66 1019.97 1020.03 1019.70 1019.57 1019.64 1019.83 1020.12 1020.40 1020.74 1020.92 1021.29 1021.44 1021.30 1021.03 1021.39 1021.39 1021.77 1021.39 1020.90 1020.92 1021.09 1021.55 1021.70 1021.03 1020.65 1020.23 1020.11 1020.33 1020.09 1019.94 1019.80 1019.59
1014.87 1015.58 1016.43 1017.18 1017.80 1018.05 1018.50 1018.79 1018.96 1019.51 1019.80 1019.98 1019.93 1020.17 1019.89 1019.60 1019.62 1019.93 1020.24 1020.60 1020.65 1021.06 1021.11 1021.25 1021.38 1021.19 1021.35 1021.82 1021.91 1021.65 1021.34 1021.20 1021.33 1021.60 1021.72 1021.22 1020.64 1020.07 1019.99 1019.75 1019.61 1019.56 1019.37
1014.87 1015.45 1016.32 1017.08 1017.88 1018.19 1018.48 1018.70 1018.95 1019.41 1019.86 1020.03 1020.11 1020.35 1020.11 1020.11 1020.13 1019.98 1020.07 1020.55 1020.76 1020.89 1021.10 1021.17 1021.26 1021.20 1021.28 1021.57 1021.87 1021.89 1021.84 1021.99 1022.05 1021.87 1021.78 1021.32 1021.12 1020.30 1019.85 1019.47 1019.32 1019.38 1019.35
Thickness
5751 5752 5751 5752 5753 5753 5753 5754 5754 5754 5753 5754 5752 5751 5751 5751 5752 5751 5749 5748 5747 5745 5744 5745 5744 5744 5743 5745 5745 5744 5742 5743 5742 5741 5739 5740 5741 5742 5741 5742 5744 5743 5744
5756 5753 5752 5753 5753 5753 5753 5753 5754 5754 5754 5753 5752 5751 5749 5749 5750 5750 5749 5748 5746 5746 5745 5744 5743 5744 5745 5745 5745 5744 5742 5741 5740 5740 5739 5739 5739 5740 5742 5743 5744 5744 5743
5757 5754 5754 5755 5754 5754 5753 5753 5753 5754 5754 5753 5752 5750 5749 5750 5750 5749 5749 5748 5746 5745 5743 5743 5742 5743 5743 5744 5743 5741 5740 5741 5741 5740 5739 5739 5739 5740 5742 5743 5744 5743 5743
5759 5757 5755 5754 5753 5752 5752 5753 5754 5755 5754 5753 5751 5751 5751 5751 5751 5752 5750 5748 5744 5741 5739 5740 5741 5743 5742 5742 5741 5739 5740 5740 5740 5741 5741 5740 5740 5740 5740 5741 5743 5742 5742
5763 5759 5757 5755 5754 5753 5753 5754 5754 5754 5754 5752 5751 5750 5750 5751 5751 5751 5750 5746 5744 5742 5740 5740 5742 5743 5742 5741 5739 5741 5743 5743 5741 5741 5741 5741 5741 5740 5740 5741 5742 5741 5742
5764 5760 5758 5757 5756 5754 5753 5752 5752 5752 5752 5751 5750 5750 5750 5751 5752 5750 5749 5747 5746 5742 5741 5742 5742 5742 5741 5739 5742 5741 5742 5743 5743 5741 5741 5740 5739 5740 5740 5741 5742 5742 5742
5766 5762 5759 5758 5757 5756 5754 5753 5752 5751 5751 5750 5751 5751 5751 5751 5751 5750 5749 5747 5746 5745 5744 5743 5743 5744 5742 5740 5742 5741 5741 5742 5742 5740 5738 5738 5738 5740 5740 5741 5741 5741 5742
5771 5765 5762 5759 5758 5757 5756 5755 5753 5751 5750 5751 5751 5751 5751 5749 5749 5749 5746 5745 5746 5746 5746 5745 5746 5746 5743 5741 5742 5742 5742 5740 5738 5738 5737 5738 5738 5740 5740 5740 5742 5742 5743
5774 5768 5763 5763 5762 5761 5759 5758 5757 5755 5753 5751 5751 5750 5749 5748 5748 5748 5746 5747 5749 5750 5749 5748 5748 5748 5745 5744 5742 5741 5741 5740 5737 5738 5738 5739 5739 5740 5740 5740 5742 5743 5744
5775 5771 5767 5767 5765 5762 5760 5759 5759 5757 5756 5752 5751 5748 5748 5750 5750 5749 5751 5752 5750 5747 5747 5747 5747 5745 5748 5747 5743 5744 5742 5740 5739 5739 5740 5739 5740 5740 5740 5741 5743 5744 5745
5775 5774 5771 5771 5767 5766 5765 5763 5761 5759 5756 5755 5753 5749 5750 5751 5750 5754 5755 5754 5744 5741 5741 5745 5748 5747 5749 5749 5745 5744 5746 5743 5742 5740 5742 5742 5743 5744 5744 5745 5746 5747 5748
5777 5776 5776 5773 5771 5769 5768 5766 5764 5761 5758 5758 5755 5754 5753 5754 5757 5754 5752 5746 5742 5746 5747 5742 5747 5749 5749 5751 5749 5746 5748 5748 5744 5744 5745 5746 5748 5748 5748 5749 5749 5751 5752
5785 5780 5778 5778 5774 5772 5771 5770 5767 5764 5761 5763 5761 5756 5756 5757 5756 5754 5753 5747 5744 5750 5751 5745 5750 5753 5749 5753 5753 5751 5749 5750 5749 5750 5750 5751 5751 5751 5752 5753 5754 5756 5756
5780 5780 5784 5783 5777 5776 5773 5773 5773 5769 5767 5770 5764 5759 5762 5760 5758 5754 5753 5754 5742 5745 5747 5751 5757 5756 5754 5755 5759 5759 5754 5752 5752 5754 5754 5755 5756 5756 5757 5758 5759 5759 5759
5787 5784 5784 5785 5781 5780 5779 5777 5776 5776 5774 5774 5769 5765 5764 5761 5757 5753 5759 5757 5754 5752 5755 5758 5761 5763 5762 5763 5764 5765 5760 5758 5758 5758 5759 5760 5760 5760 5761 5762 5762 5763 5763
5791 5786 5785 5785 5784 5783 5783 5780 5780 5778 5778 5778 5775 5770 5764 5764 5762 5759 5760 5759 5761 5757 5759 5760 5764 5764 5762 5766 5767 5768 5767 5765 5764 5763 5763 5764 5764 5765 5766 5767 5767 5767 5766
5792 5789 5786 5785 5787 5789 5784 5781 5782 5779 5777 5777 5778 5773 5768 5768 5768 5765 5762 5760 5762 5763 5764 5761 5760 5763 5769 5772 5771 5772 5772 5772 5772 5770 5768 5768 5768 5770 5771 5771 5771 5771 5771
5795 5790 5789 5791 5789 5789 5788 5786 5782 5781 5777 5775 5778 5774 5773 5771 5769 5767 5765 5764 5764 5761 5764 5762 5762 5764 5768 5772 5774 5776 5776 5778 5778 5775 5773 5773 5773 5774 5776 5776 5776 5776 5776
5796 5793 5789 5790 5789 5787 5789 5787 5784 5784 5778 5776 5779 5776 5773 5771 5769 5772 5768 5765 5767 5768 5767 5768 5768 5772 5772 5774 5776 5778 5779 5781 5782 5782 5779 5778 5779 5780 5782 5781 5781 5781 5782
5794 5794 5792 5789 5789 5789 5786 5783 5784 5783 5780 5778 5777 5777 5775 5775 5773 5773 5772 5770 5773 5772 5772 5771 5773 5775 5778 5778 5781 5783 5784 5785 5784 5786 5785 5785 5785 5785 5787 5787 5785 5786 5787
5791 5790 5790 5787 5789 5788 5784 5778 5779 5778 5780 5780 5779 5777 5777 5775 5774 5773 5775 5773 5774 5774 5773 5775 5774 5775 5777 5783 5778 5780 5785 5787 5787 5788 5788 5791 5790 5790 5792 5791 5791 5792 5792
5788 5788 5787 5788 5788 5788 5787 5784 5784 5783 5783 5783 5781 5779 5779 5776 5774 5774 5775 5776 5777 5776 5776 5778 5778 5775 5776 5781 5776 5772 5767 5777 5788 5791 5792 5794 5794 5795 5796 5795 5796 5797 5798
5789 5788 5785 5786 5788 5788 5786 5786 5787 5785 5781 5778 5779 5780 5780 5777 5778 5775 5775 5774 5775 5776 5776 5777 5780 5777 5773 5782 5787 5777 5764 5761 5773 5788 5791 5795 5798 5797 5798 5799 5800 5801 5802
5791 5791 5788 5786 5787 5788 5786 5784 5782 5779 5775 5777 5778 5784 5783 5782 5783 5781 5778 5777 5776 5776 5775 5778 5781 5779 5779 5773 5782 5788 5787 5783 5768 5766 5785 5791 5798 5800 5800 5802 5803 5805 5806
5796 5792 5789 5787 5786 5788 5786 5786 5784 5781 5778 5778 5781 5778 5782 5784 5785 5783 5782 5780 5779 5777 5779 5778 5778 5782 5782 5777 5778 5780 5784 5785 5786 5775 5769 5780 5793 5800 5803 5805 5808 5809 5809
5794 5793 5789 5786 5782 5785 5785 5786 5784 5782 5779 5777 5778 5777 5780 5781 5783 5785 5784 5782 5780 5780 5779 5781 5779 5783 5784 5782 5780 5780 5780 5775 5775 5776 5774 5781 5784 5796 5804 5807 5809 5809 5809